sat.trackr.live / text

‹ back to catalog

STARLINK-30397

NORAD 57771 · 2023-134A

PAYLOAD ACTIVE UNKNOWN

§ Identity

Operator
Country
US
Launch date
2023-09-04
Launch site
AFETR
Launch vehicle
Mass (kg)
RCS (m²)

Purposes: comms

External: N2YO · Heavens-Above · Gunter

§ Orbital elements

Epoch: 2026-05-24T23:47:37.577760Z

Period
94.27 min
Inclination
43.0016°
Eccentricity
0.0001290
Mean motion
15.27576469 rev/d
Perigee alt
482.2 km
Apogee alt
483.9 km
Semi-major
6,861.2 km
B*
2.3380e-5
RAAN
123.8007°
Arg perigee
304.3192°
Mean anomaly
55.7538°
Rev number
15,117

§ Raw data

STARLINK-303971 57771U 23134A   26144.99140715  .00000381  00000+0  23380-4 0  99942 57771  43.0016 123.8007 0001290 304.3192  55.7538 15.27576469151178

JSON: /api/v1/satellites/57771 · /tle

For live sub-satellite position, see the globe view (requires WebGL).

§ Visibility from observer

Set your observer location to see the next 7 days of passes ≥ 10°. The values pass through the URL so the page stays shareable.

No JS? Fill the form by hand. The geolocation button needs JavaScript.